STARLINK-30712, 57935

Orbit data source: Space-Track

STARLINK-30712, 57935 is a payload satellite owned by SpaceX/Seattle (US) in LEO that was launched on Mon, 25 Sep 2023 UTC via an FALCON 9 launch vehicle from the Air Force Western Test Range (AFWTR). Payload-class satellites include a variety of spacecraft equipped with specific instruments for various scientific and technological missions. These include communications satellites like Starlink; space stations such as the ISS; scientific satellites like the Hubble; Earth observation satellites from companies like Planet Labs, Umbra, and HawkEye 360; GPS; miniature CubeSats for education and research; and military/defense satellites.

Loading next visibility...
Identifier
57935, 2023-148A
Orbit
LEO
Country
Flag of USUS
Related business
Manufacturer
SpaceX/Seattle
Mission
Operational Commercial Communications
Bus & Motor
STARLINK V2M, Unknown motor
Mass
730 kg wet, ~700 kg dry
Launch date (UTC)
2023-09-25 (3 years ago)
Launch vehicle
FALCON 9
Launch site
Air Force Western Test Range (AFWTR)
Object type
Payload
Rocket body
Debris
Shape & HBR
Box + 2 Pan, 17.7 m
Radar Cross Section
33.884 m², Large (>1 m²)

Expand to show TLE details & history
Last TLE update: 2 days ago

TLE from 2 days ago
0 STARLINK-30712
1 57935U 23148A   26171.26496751  .00000126  00000-0  14880-4 0  9998
2 57935  53.1590 266.6748 0001544  97.2879 262.8299 15.34383960154144
Epoch: 2026-06-20T06:21Z
TLE epoch observation values (Epoch: 2026-06-20T06:21:33.192Z)
Latitude
-0.00005°
Longitude
-97.19561°
Altitude
463.784 km
Speed
7.636 km/s
True Right ascension
17h 46m 41s
True Declination
0° 00' 00"
Sunlit
Object was in full shadow at epoch
Visualization orbit readout
Latitude
Unknown
Longitude
Unknown
Altitude
Unknown
Speed
Unknown
Apparent Right ascension
Unknown
Apparent Declination
Unknown
Sunlit
N/A
Visualization observer readout
Local Sidereal Time
21:28:29
Azimuth
Unknown
Elevation
Unknown
Doppler factor
Unknown
Orbital elements
Apogee altitude
464.064 km
Perigee altitude
461.952 km
Semi-major axis
6,841.145 km
Eccentricity
0.00015
Inclination
53.159°
RAAN
266.6748°
Arg. of periapsis
97.2879°
True anomaly
262.81235°
Mean anomaly
262.8299°
Eccentric anomaly
262.82112°
Mean motion
3.83575 °/min
Orbital period
93.85 mins
BSTAR
0.00001488
Loading maneuver chart data...
Computing Atmospheric mass density...
Loading historical data...
Loading historical data...
Loading historical data...
Loading historical data...
Loading historical data...
Loading historical data...
Loading historical data...

Documentation

Showing up to 5 results
|